Location: Newark
(48.3983°N, 16.0611°E)
Time: 05:24:22
(UTC+00:00)

ISS - Visible Passes

Search period start: 22 January 2020 00:00
Search period end: 01 February 2020 00:00
Orbit: 415 x 421 km, 51.6° (Epoch: 22 January)

Date Brightness Start Highest point End Pass type
(mag) Time Alt. Az. Time Alt. Az. Time Alt. Az.
22 Jan -2.9 17:25:09 10° SSW 17:28:15 35° SE 17:28:18 35° SE visible
23 Jan -2.2 16:37:39 10° SSW 16:40:24 23° SE 16:42:27 14° E visible
23 Jan -1.9 18:13:32 10° WSW 18:15:23 30° WSW 18:15:23 30° WSW visible
24 Jan -3.8 17:25:33 10° WSW 17:28:54 74° SSE 17:29:28 57° E visible
25 Jan -3.3 16:37:40 10° SW 16:40:57 51° SSE 16:43:30 15° ENE visible
25 Jan -1.9 18:14:26 10° W 18:16:26 31° WNW 18:16:26 31° WNW visible
26 Jan -3.6 17:26:18 10° W 17:29:40 64° NNW 17:30:25 47° NE visible
27 Jan -3.8 16:38:13 10° WSW 16:41:36 83° NNW 16:44:22 15° ENE visible
27 Jan -1.9 18:15:20 10° WNW 18:17:17 29° WNW 18:17:17 29° WNW visible
28 Jan -3.2 17:27:12 10° W 17:30:28 48° N 17:31:13 39° NE visible
29 Jan -3.4 16:39:02 10° W 16:42:21 54° N 16:45:08 14° ENE visible
29 Jan -1.9 18:16:08 10° WNW 18:18:04 29° NW 18:18:04 29° NW visible
30 Jan -3.3 17:28:00 10° WNW 17:31:18 47° N 17:31:59 39° NE visible
30 Jan -0.2 19:04:52 10° WNW 19:04:55 10° WNW 19:04:55 10° WNW visible
31 Jan -3.2 16:39:51 10° WNW 16:43:07 46° N 16:45:55 13° ENE visible
31 Jan -2.2 18:16:47 10° WNW 18:18:51 34° WNW 18:18:51 34° WNW visible
